Date String (YYYY-MM-DD hh:mm:ss) UTC,Instrument flags,Ambient pressure (hPa),Sample flow (lpm),Bypass flow (lpm),Sample temperature (°C),Ambient temperature (°C),ASC tube jacket temperature (°C),LED temperature (°C),Box temperature (°C),Sample RH (%),Span deviation,Mass concentration (μg/m³),Mass concentration (μg/m³),Mass concentration (μg/m³)
DateTimeUTC,F1_M11,P_M11,Q1_M11,Q2_M11,T1_M11,T2_M11,T3_M11,T4_M11,T5_M11,U1_M11,ZSPAN_M11,X0_M11,X2_M11,X1_M11
2023-01-11 14:00:00,,0815.8,5.01,0.00,22.1,20.8,00.0,31.0,23.9,20.1,0000.0,0003.45,0002.89,0002.77
2023-01-11 14:01:00,,0815.8,5.00,0.00,22.1,20.8,00.0,31.0,23.9,20.2,0000.0,0003.47,0002.89,0002.75
2023-01-11 14:02:00,,0815.8,4.99,0.00,22.1,20.8,00.0,31.0,23.9,20.2,0000.0,0003.70,0002.93,0002.75
2023-01-11 14:03:00,,0815.7,4.99,0.00,22.1,20.8,00.0,31.0,23.9,20.3,0000.0,0004.06,0002.99,0002.75
2023-01-11 14:04:00,,0815.7,5.00,0.00,22.1,20.7,00.0,31.0,23.8,20.3,0000.0,0004.13,0003.02,0002.74
2023-01-11 14:05:00,,0815.7,5.00,0.00,22.1,20.7,00.0,31.0,23.8,20.3,0000.0,0004.31,0003.03,0002.74
2023-01-11 14:06:00,,0815.7,5.02,0.00,22.1,20.8,00.0,31.0,23.8,20.3,0000.0,0004.64,0003.05,0002.72
2023-01-11 14:07:00,,0815.7,5.02,0.00,22.1,20.8,00.0,31.0,23.8,20.4,0000.0,0004.67,0002.99,0002.67
2023-01-11 14:08:00,,0815.7,5.03,0.00,22.1,20.7,00.0,31.0,23.9,20.6,0000.0,0004.66,0002.96,0002.63
2023-01-11 14:09:00,,0815.7,5.00,0.00,22.1,20.7,00.0,31.0,23.8,20.6,0000.0,0004.61,0002.93,0002.59
2023-01-11 14:10:00,,0815.8,5.00,0.00,22.1,20.7,00.0,31.0,23.8,20.6,0000.0,0004.62,0002.90,0002.54
2023-01-11 14:11:00,,0815.8,5.00,0.00,22.1,20.7,00.0,31.0,23.8,20.7,0000.0,0004.68,0002.91,0002.52
2023-01-11 14:12:00,,0815.8,4.99,0.00,22.1,20.6,00.0,31.0,23.8,20.7,0000.0,0004.63,0002.88,0002.49
2023-01-11 14:13:00,,0815.8,5.02,0.00,22.1,20.8,00.0,30.9,23.9,20.8,0000.0,0004.47,0002.81,0002.45
2023-01-11 14:14:00,,0815.8,5.01,0.00,22.2,21.7,00.0,30.9,24.1,20.7,0000.0,0003.99,0002.71,0002.41
2023-01-11 14:15:00,,0815.8,4.99,0.00,22.3,22.7,00.0,30.9,24.3,20.6,0000.0,0003.86,0002.63,0002.36
2023-01-11 14:16:00,,0815.8,4.99,0.00,22.4,22.9,00.0,31.0,24.5,20.5,0000.0,0003.59,0002.54,0002.31
2023-01-11 14:17:00,,0815.8,4.98,0.00,22.4,22.4,00.0,31.1,24.4,20.5,0000.0,0003.24,0002.46,0002.28
2023-01-11 14:18:00,,0815.9,5.02,0.00,22.4,22.0,00.0,31.1,24.3,20.5,0000.0,0003.06,0002.48,0002.28
2023-01-11 14:19:00,,0815.8,5.00,0.00,22.4,21.7,00.0,31.1,24.2,20.5,0000.0,0003.04,0002.48,0002.29
2023-01-11 14:20:00,,0815.8,5.00,0.00,22.4,21.5,00.0,31.1,24.2,20.5,0000.0,0003.02,0002.46,0002.29
2023-01-11 14:21:00,,0815.9,4.99,0.00,22.4,21.3,00.0,31.2,24.2,20.5,0000.0,0003.00,0002.47,0002.29
2023-01-11 14:22:00,,0815.7,5.00,0.00,22.4,21.2,00.0,31.2,24.2,20.6,0000.0,0002.92,0002.43,0002.28
2023-01-11 14:23:00,,0815.7,5.00,0.00,22.4,21.1,00.0,31.2,24.2,20.6,0000.0,0002.86,0002.41,0002.28
2023-01-11 14:24:00,,0815.7,5.02,0.00,22.4,21.0,00.0,31.2,24.1,20.6,0000.0,0002.94,0002.43,0002.28
2023-01-11 14:25:00,,0815.7,5.00,0.00,22.4,21.0,00.0,31.2,24.1,20.6,0000.0,0003.09,0002.45,0002.29
2023-01-11 14:26:00,,0815.7,5.01,0.00,22.4,21.0,00.0,31.2,24.1,20.6,0000.0,0003.13,0002.47,0002.31
2023-01-11 14:27:00,,0815.7,5.00,0.00,22.3,20.9,00.0,31.2,24.1,20.7,0000.0,0003.20,0002.52,0002.34
2023-01-11 14:28:00,,0815.7,5.01,0.00,22.3,20.9,00.0,31.2,24.1,20.8,0000.0,0003.27,0002.56,0002.37
2023-01-11 14:29:00,,0815.7,5.00,0.00,22.3,20.9,00.0,31.2,24.1,20.7,0000.0,0003.29,0002.55,0002.37
2023-01-11 14:30:00,,0815.7,4.99,0.00,22.3,20.9,00.0,31.2,24.1,20.7,0000.0,0003.36,0002.58,0002.41
2023-01-11 14:31:00,,0815.7,4.99,0.00,22.3,20.9,00.0,31.2,24.1,20.8,0000.0,0003.41,0002.62,0002.45
2023-01-11 14:32:00,,0815.7,5.00,0.00,22.3,20.9,00.0,31.2,24.1,20.8,0000.0,0003.40,0002.64,0002.50
2023-01-11 14:33:00,,0815.7,5.01,0.00,22.3,20.9,00.0,31.2,24.1,20.8,0000.0,0003.43,0002.68,0002.55
2023-01-11 14:34:00,,0815.7,5.00,0.00,22.3,20.9,00.0,31.2,24.1,20.8,0000.0,0003.52,0002.74,0002.60
2023-01-11 14:35:00,,0815.7,4.99,0.00,22.3,20.9,00.0,31.2,24.1,20.8,0000.0,0003.47,0002.77,0002.65
2023-01-11 14:36:00,,0815.7,5.00,0.00,22.3,20.9,00.0,31.2,24.0,20.9,0000.0,0003.46,0002.80,0002.69
2023-01-11 14:37:00,,0815.7,5.00,0.00,22.3,20.8,00.0,31.2,24.0,20.9,0000.0,0003.97,0002.83,0002.73
2023-01-11 14:38:00,,0815.7,5.01,0.00,22.3,20.8,00.0,31.2,24.0,20.9,0000.0,0004.05,0002.90,0002.80
2023-01-11 14:39:00,,0815.8,4.99,0.00,22.3,20.8,00.0,31.2,24.0,20.9,0000.0,0004.14,0002.99,0002.89
2023-01-11 14:40:00,,0815.8,5.00,0.00,22.3,20.8,00.0,31.2,24.0,21.0,0000.0,0004.30,0003.11,0003.01
2023-01-11 14:41:00,,0815.8,5.00,0.00,22.3,20.8,00.0,31.2,24.0,21.0,0000.0,0004.42,0003.18,0003.12
2023-01-11 14:42:00,,0815.8,4.99,0.00,22.2,20.8,00.0,31.1,24.0,21.0,0000.0,0004.72,0003.25,0003.17
2023-01-11 14:43:00,,0815.8,5.01,0.00,22.2,20.8,00.0,31.1,24.0,21.1,0000.0,0004.91,0003.31,0003.23
2023-01-11 14:44:00,,0815.8,4.99,0.00,22.2,20.8,00.0,31.1,24.0,21.2,0000.0,0005.03,0003.36,0003.28
2023-01-11 14:45:00,,0815.8,4.99,0.00,22.2,20.7,00.0,31.1,24.0,21.2,0000.0,0005.15,0003.42,0003.34
2023-01-11 14:46:00,,0815.8,4.98,0.00,22.2,20.7,00.0,31.1,24.0,21.2,0000.0,0005.29,0003.48,0003.40
2023-01-11 14:47:00,,0815.8,5.00,0.00,22.2,20.7,00.0,31.1,24.0,21.2,0000.0,0005.40,0003.54,0003.45
2023-01-11 14:48:00,,0815.8,5.01,0.00,22.2,20.7,00.0,31.1,23.9,21.2,0000.0,0004.96,0003.59,0003.51
2023-01-11 14:49:00,,0815.8,4.99,0.00,22.2,20.7,00.0,31.1,23.9,21.3,0000.0,0005.01,0003.62,0003.54
2023-01-11 14:50:00,,0815.8,5.00,0.00,22.2,20.7,00.0,31.1,23.9,21.3,0000.0,0005.03,0003.63,0003.55
2023-01-11 14:51:00,,0815.8,5.00,0.00,22.2,20.7,00.0,31.1,23.9,21.4,0000.0,0005.05,0003.63,0003.55
2023-01-11 14:52:00,,0815.8,5.00,0.00,22.2,20.7,00.0,31.1,23.9,21.4,0000.0,0005.02,0003.61,0003.53
2023-01-11 14:53:00,,0815.8,5.00,0.00,22.2,20.9,00.0,31.0,24.0,21.4,0000.0,0004.99,0003.60,0003.51
2023-01-11 14:54:00,,0815.8,5.01,0.00,22.2,21.7,00.0,31.0,24.1,21.4,0000.0,0004.95,0003.59,0003.49
2023-01-11 14:55:00,,0815.9,4.99,0.00,22.3,22.7,00.0,31.0,24.4,21.2,0000.0,0004.99,0003.60,0003.48
2023-01-11 14:56:00,,0815.9,4.99,0.00,22.5,22.9,00.0,31.1,24.5,21.1,0000.0,0004.99,0003.60,0003.48
2023-01-11 14:57:00,,0815.9,4.98,0.00,22.5,22.5,00.0,31.1,24.5,21.1,0000.0,0005.21,0003.62,0003.48
2023-01-11 14:58:00,,0815.9,5.01,0.00,22.5,22.1,00.0,31.2,24.4,21.1,0000.0,0005.41,0003.64,0003.47
2023-01-11 14:59:00,,0815.9,5.01,0.00,22.5,21.8,00.0,31.2,24.4,21.1,0000.0,0005.40,0003.64,0003.47
